HB9EYW-6 Weather Reports


Display with metric or nautical units.
time (UTC)temp
F
wind
direction
speed
MPH
gust
MPH
rain 1hr
in
rain 24hr
in
rain mn
in
humidity
%
barometer
mb
20260901204003 68 225 0.0 1.0 0.00 0.00 0.00 41
20260901203503 68 155 0.0 2.0 0.00 0.00 0.00 40
20260901203003 69 135 0.0 2.0 0.00 0.00 0.00 40
20260901202503 69 137 1.0 2.0 0.00 0.00 0.00 39
20260901202003 69 142 0.0 2.0 0.00 0.00 0.00 38
20260901201503 69 135 0.0 1.0 0.00 0.00 0.00 38
20260901201003 69 135 0.0 1.0 0.00 0.00 0.00 37
20260901200503 70 137 0.0 2.0 0.00 0.00 0.00 36
20260901200003 70 156 0.0 2.0 0.00 0.00 0.00 36
20260901195503 70 189 0.0 1.0 0.00 0.00 0.00 36
20260901195003 70 180 0.0 1.0 0.00 0.00 0.00 36
20260901194503 71 180 0.0 1.0 0.00 0.00 0.00 35
20260901194003 71 0 0.0 0.0 0.00 0.00 0.00 35
20260901193503 71 180 0.0 1.0 0.00 0.00 0.00 35
20260901193003 71 169 0.0 1.0 0.00 0.00 0.00 34
20260901192503 71 164 0.0 1.0 0.00 0.00 0.00 34
20260901192003 71 153 0.0 2.0 0.00 0.00 0.00 33
20260901191503 72 149 0.0 2.0 0.00 0.00 0.00 33
20260901191003 72 150 0.0 1.0 0.00 0.00 0.00 32
20260901190503 72 135 0.0 2.0 0.00 0.00 0.00 30
20260901190003 72 135 0.0 2.0 0.00 0.00 0.00 30
20260901185503 73 135 0.0 1.0 0.00 0.00 0.00 30
20260901185003 73 0 0.0 0.0 0.00 0.00 0.00 29
20260901184503 74 0 0.0 0.0 0.00 0.00 0.00 28
20260901184003 74 0 0.0 0.0 0.00 0.00 0.00 27
20260901183503 74 0 0.0 0.0 0.00 0.00 0.00 26
20260901183003 74 0 0.0 0.0 0.00 0.00 0.00 24
20260901182503 75 0 0.0 0.0 0.00 0.00 0.00 23
20260901182003 76 225 0.0 1.0 0.00 0.00 0.00 23
20260901181503 76 225 0.0 1.0 0.00 0.00 0.00 22
20260901181003 76 225 0.0 1.0 0.00 0.00 0.00 21
20260901180503 77 227 0.0 1.0 0.00 0.00 0.00 20
20260901180003 77 247 0.0 1.0 0.00 0.00 0.00 20
20260901175503 77 260 0.0 1.0 0.00 0.00 0.00 19
20260901175003 77 225 0.0 1.0 0.00 0.00 0.00 18
20260901174503 78 247 0.0 2.0 0.00 0.00 0.00 17
20260901174003 78 240 0.0 2.0 0.00 0.00 0.00 17
20260901173503 78 253 0.0 2.0 0.00 0.00 0.00 17
20260901173003 78 284 0.0 2.0 0.00 0.00 0.00 16
20260901172503 78 281 1.0 2.0 0.00 0.00 0.00 15
20260901172003 78 252 1.0 4.0 0.00 0.00 0.00 15
20260901171503 78 243 0.0 4.0 0.00 0.00 0.00 14
20260901171003 79 232 1.0 4.0 0.00 0.00 0.00 13
20260901170503 79 235 1.0 4.0 0.00 0.00 0.00 13
20260901170003 79 270 1.0 4.0 0.00 0.00 0.00 13
20260901165503 79 270 2.0 4.0 0.00 0.00 0.00 12
20260901165003 80 268 1.0 4.0 0.00 0.00 0.00 12
20260901164503 80 255 0.0 4.0 0.00 0.00 0.00 12
20260901164003 80 238 2.0 4.0 0.00 0.00 0.00 11
20260901163503 81 243 1.0 3.0 0.00 0.00 0.00 12
20260901163003 81 241 1.0 3.0 0.00 0.00 0.00 11
20260901162503 82 244 1.0 4.0 0.00 0.00 0.00 10
20260901162003 83 264 0.0 4.0 0.00 0.00 0.00 10
20260901161503 84 247 2.0 4.0 0.00 0.00 0.00 10
20260901161003 85 88 0.0 3.0 0.00 0.00 0.00 10
20260901160503 84 134 1.0 5.0 0.00 0.00 0.00 10
20260901160003 84 242 1.0 5.0 0.00 0.00 0.00 10
20260901155503 84 247 2.0 4.0 0.00 0.00 0.00 10
20260901155003 84 247 2.0 4.0 0.00 0.00 0.00 10
20260901154503 84 247 0.0 3.0 0.00 0.00 0.00 10
20260901154003 84 225 0.0 4.0 0.00 0.00 0.00 10
20260901153503 84 224 1.0 4.0 0.00 0.00 0.00 10
20260901153003 84 186 0.0 4.0 0.00 0.00 0.00 10
20260901152503 84 186 0.0 4.0 0.00 0.00 0.00 10
20260901152003 84 269 2.0 4.0 0.00 0.00 0.00 10
20260901151503 84 272 1.0 4.0 0.00 0.00 0.00 10
20260901151003 84 269 0.0 4.0 0.00 0.00 0.00 10
20260901150503 84 281 2.0 4.0 0.00 0.00 0.00 10
20260901150003 84 266 2.0 6.0 0.00 0.00 0.00 10
20260901145503 84 234 3.0 7.0 0.00 0.00 0.00 10
20260901145003 85 241 1.0 7.0 0.00 0.00 0.00 10
20260901144503 87 251 3.0 7.0 0.00 0.00 0.00 10
20260901144003 87 211 0.0 3.0 0.00 0.00 0.00 10
20260901143503 87 263 0.0 4.0 0.00 0.00 0.00 10
20260901143003 86 316 0.0 4.0 0.00 0.00 0.00 10
20260901142503 86 329 1.0 4.0 0.00 0.00 0.00 10
20260901142003 86 252 0.0 4.0 0.00 0.00 0.00 10
20260901141503 85 262 1.0 4.0 0.00 0.00 0.00 10
20260901141003 85 273 0.0 3.0 0.00 0.00 0.00 10
20260901140503 85 273 0.0 3.0 0.00 0.00 0.00 10
20260901140003 85 273 0.0 4.0 0.00 0.00 0.00 10
20260901135503 85 252 0.0 4.0 0.00 0.00 0.00 10
20260901135003 86 258 1.0 5.0 0.00 0.00 0.00 10
20260901134503 86 273 2.0 5.0 0.00 0.00 0.00 10
20260901134003 86 271 1.0 5.0 0.00 0.00 0.00 10
20260901133503 85 278 1.0 5.0 0.00 0.00 0.00 10
20260901133003 86 260 1.0 5.0 0.00 0.00 0.00 10
20260901132503 87 240 2.0 4.0 0.00 0.00 0.00 10
20260901132003 87 279 0.0 4.0 0.00 0.00 0.00 10
20260901131503 86 225 0.0 4.0 0.00 0.00 0.00 10
20260901131003 86 182 0.0 4.0 0.00 0.00 0.00 10
20260901130503 85 222 1.0 7.0 0.00 0.00 0.00 10
20260901130003 85 234 1.0 7.0 0.00 0.00 0.00 10
20260901125503 86 225 4.0 7.0 0.00 0.00 0.00 10
20260901125003 87 256 0.0 4.0 0.00 0.00 0.00 10
20260901124503 86 245 0.0 5.0 0.00 0.00 0.00 10
20260901124003 85 251 1.0 5.0 0.00 0.00 0.00 10
20260901123503 85 227 1.0 4.0 0.00 0.00 0.00 10
20260901123003 85 206 2.0 6.0 0.00 0.00 0.00 10
20260901122503 84 250 2.0 6.0 0.00 0.00 0.00 11
20260901122003 83 252 1.0 5.0 0.00 0.00 0.00 13
20260901121503 82 235 2.0 5.0 0.00 0.00 0.00 14
20260901121003 81 222 2.0 5.0 0.00 0.00 0.00 14
20260901120503 84 266 0.0 4.0 0.00 0.00 0.00 11
20260901120003 84 306 0.0 4.0 0.00 0.00 0.00 11
20260901115503 85 282 0.0 4.0 0.00 0.00 0.00 12
20260901115003 84 271 2.0 6.0 0.00 0.00 0.00 11
20260901114503 84 258 0.0 6.0 0.00 0.00 0.00 12
20260901114003 84 270 0.0 4.0 0.00 0.00 0.00 12
20260901113503 84 303 1.0 5.0 0.00 0.00 0.00 10
20260901113003 85 291 1.0 5.0 0.00 0.00 0.00 10
20260901112503 87 274 0.0 3.0 0.00 0.00 0.00 10
20260901112003 86 269 0.0 3.0 0.00 0.00 0.00 13
20260901111503 86 226 2.0 3.0 0.00 0.00 0.00 10
20260901111003 87 217 0.0 2.0 0.00 0.00 0.00 10
20260901110503 86 231 1.0 3.0 0.00 0.00 0.00 13
20260901110003 86 263 1.0 3.0 0.00 0.00 0.00 13
20260901105503 85 340 0.0 3.0 0.00 0.00 0.00 14
20260901105003 84 7 1.0 2.0 0.00 0.00 0.00 16
20260901104503 83 219 1.0 2.0 0.00 0.00 0.00 17
20260901104003 83 245 0.0 4.0 0.00 0.00 0.00 17
20260901103503 82 344 1.0 4.0 0.00 0.00 0.00 19
20260901103003 82 318 2.0 4.0 0.00 0.00 0.00 17
20260901102503 82 241 0.0 4.0 0.00 0.00 0.00 18
20260901102003 83 252 0.0 4.0 0.00 0.00 0.00 18
20260901101503 84 275 1.0 4.0 0.00 0.00 0.00 17
20260901101003 84 274 1.0 3.0 0.00 0.00 0.00 20
20260901100503 82 294 0.0 3.0 0.00 0.00 0.00 22
20260901100003 82 298 0.0 4.0 0.00 0.00 0.00 22
20260901095503 82 279 2.0 4.0 0.00 0.00 0.00 20
20260901095003 82 252 1.0 4.0 0.00 0.00 0.00 23
20260901094503 80 249 2.0 4.0 0.00 0.00 0.00 24
20260901094003 80 266 1.0 4.0 0.00 0.00 0.00 24
20260901093503 80 324 0.0 4.0 0.00 0.00 0.00 27
20260901093003 79 296 2.0 4.0 0.00 0.00 0.00 24
20260901092503 80 236 0.0 2.0 0.00 0.00 0.00 25
20260901092003 80 259 0.0 2.0 0.00 0.00 0.00 27
20260901091503 79 300 0.0 2.0 0.00 0.00 0.00 31
20260901091003 77 241 1.0 2.0 0.00 0.00 0.00 31
20260901090503 75 218 0.0 1.0 0.00 0.00 0.00 38
20260901090003 75 290 0.0 2.0 0.00 0.00 0.00 38
20260901085503 74 291 0.0 3.0 0.00 0.00 0.00 38
20260901085003 73 283 1.0 3.0 0.00 0.00 0.00 38
20260901084503 73 229 0.0 3.0 0.00 0.00 0.00 39
20260901084003 73 187 0.0 3.0 0.00 0.00 0.00 40
20260901083503 73 230 0.0 3.0 0.00 0.00 0.00 40
20260901083003 73 238 1.0 2.0 0.00 0.00 0.00 40
20260901082503 73 236 0.0 2.0 0.00 0.00 0.00 40
20260901082003 73 242 0.0 2.0 0.00 0.00 0.00 40
20260901081503 73 160 0.0 2.0 0.00 0.00 0.00 42
20260901081003 72 139 0.0 2.0 0.00 0.00 0.00 41
20260901080503 71 144 0.0 2.0 0.00 0.00 0.00 45
20260901080003 71 178 0.0 2.0 0.00 0.00 0.00 45
20260901075503 70 141 0.0 2.0 0.00 0.00 0.00 45
20260901075003 70 152 0.0 2.0 0.00 0.00 0.00 45
20260901074503 70 168 0.0 2.0 0.00 0.00 0.00 47
20260901074003 69 138 0.0 2.0 0.00 0.00 0.00 47
20260901073503 69 138 0.0 2.0 0.00 0.00 0.00 46
20260901073003 69 126 0.0 2.0 0.00 0.00 0.00 46
20260901072503 69 79 0.0 2.0 0.00 0.00 0.00 47
20260901072003 69 103 0.0 2.0 0.00 0.00 0.00 47
20260901071503 69 144 1.0 2.0 0.00 0.00 0.00 49
20260901071003 68 170 0.0 1.0 0.00 0.00 0.00 51
20260901070503 67 154 0.0 2.0 0.00 0.00 0.00 54
20260901070003 67 131 0.0 2.0 0.00 0.00 0.00 54
20260901065503 66 123 1.0 3.0 0.00 0.00 0.00 55
20260901065003 65 106 0.0 4.0 0.00 0.00 0.00 57
20260901064503 64 131 2.0 4.0 0.00 0.00 0.00 57
20260901064003 64 150 1.0 4.0 0.00 0.00 0.00 58
20260901063503 64 157 0.0 2.0 0.00 0.00 0.00 60
20260901063003 64 135 1.0 3.0 0.00 0.00 0.00 60
20260901062503 63 124 0.0 3.0 0.00 0.00 0.00 60
20260901062003 63 123 2.0 3.0 0.00 0.00 0.00 61
20260901061503 63 113 2.0 3.0 0.00 0.00 0.00 61
20260901061003 63 124 0.0 2.0 0.00 0.00 0.00 62
20260901060503 62 123 0.0 2.0 0.00 0.00 0.00 63
20260901060003 62 123 0.0 2.0 0.00 0.00 0.00 63
20260901055503 62 127 0.0 2.0 0.00 0.00 0.00 63
20260901055003 62 127 0.0 2.0 0.00 0.00 0.00 63
20260901054503 62 127 0.0 2.0 0.00 0.00 0.00 63
20260901054003 62 124 0.0 2.0 0.00 0.00 0.00 63
20260901053503 62 135 0.0 1.0 0.00 0.00 0.00 62
20260901053003 62 141 0.0 2.0 0.00 0.00 0.00 62
20260901052503 62 133 0.0 2.0 0.00 0.00 0.00 62
20260901052004 62 135 0.0 2.0 0.00 0.00 0.00 61
20260901051503 62 111 0.0 4.0 0.00 0.00 0.00 61
20260901051003 61 93 0.0 4.0 0.00 0.00 0.00 61
20260901050503 62 102 2.0 4.0 0.00 0.00 0.00 60
20260901050003 62 120 2.0 4.0 0.00 0.00 0.00 60
20260901045503 62 112 0.0 2.0 0.00 0.00 0.00 60
20260901045003 62 112 0.0 2.0 0.00 0.00 0.00 59
20260901044505 62 124 0.0 2.0 0.00 0.00 0.00 59
20260901044003 62 126 1.0 2.0 0.00 0.00 0.00 59
20260901043503 62 122 0.0 2.0 0.00 0.00 0.00 59
20260901043003 62 124 0.0 2.0 0.00 0.00 0.00 59
20260901042503 62 126 0.0 2.0 0.00 0.00 0.00 58
20260901042003 62 135 0.0 2.0 0.00 0.00 0.00 58
20260901041503 62 151 0.0 3.0 0.00 0.00 0.00 59
20260901041003 62 165 0.0 3.0 0.00 0.00 0.00 59
20260901040503 62 170 1.0 2.0 0.00 0.00 0.00 59
20260901040003 62 125 1.0 2.0 0.00 0.00 0.00 59
20260901035503 62 134 0.0 2.0 0.00 0.00 0.00 59
20260901035003 62 139 0.0 2.0 0.00 0.00 0.00 59
20260901034503 62 135 0.0 2.0 0.00 0.00 0.00 59
20260901034003 62 148 0.0 1.0 0.00 0.00 0.00 59
20260901033503 62 158 0.0 1.0 0.00 0.00 0.00 59
20260901033003 62 158 0.0 1.0 0.00 0.00 0.00 59
20260901032503 62 0 0.0 0.0 0.00 0.00 0.00 58
20260901032003 63 0 0.0 0.0 0.00 0.00 0.00 58
20260901031504 63 0 0.0 0.0 0.00 0.00 0.00 58
20260901031003 63 0 0.0 0.0 0.00 0.00 0.00 57
20260901030503 63 0 0.0 0.0 0.00 0.00 0.00 57
20260901030003 63 0 0.0 0.0 0.00 0.00 0.00 57
20260901025503 63 135 0.0 3.0 0.00 0.00 0.00 57
20260901025003 63 133 0.0 3.0 0.00 0.00 0.00 57
20260901024503 63 133 2.0 3.0 0.00 0.00 0.00 57
20260901024003 63 142 0.0 2.0 0.00 0.00 0.00 57
20260901023503 63 143 0.0 2.0 0.00 0.00 0.00 57
20260901023003 64 135 0.0 1.0 0.00 0.00 0.00 57
20260901022503 64 135 0.0 1.0 0.00 0.00 0.00 57
20260901022003 63 135 0.0 2.0 0.00 0.00 0.00 57
20260901021503 63 135 0.0 2.0 0.00 0.00 0.00 57
20260901021003 63 135 0.0 2.0 0.00 0.00 0.00 56
20260901020503 64 135 0.0 2.0 0.00 0.00 0.00 55
20260901020003 64 135 0.0 2.0 0.00 0.00 0.00 55
20260901015503 64 135 1.0 2.0 0.00 0.00 0.00 55
20260901015003 64 135 0.0 1.0 0.00 0.00 0.00 55
20260901014503 64 135 0.0 1.0 0.00 0.00 0.00 55
20260901014003 64 0 0.0 0.0 0.00 0.00 0.00 55
20260901013503 64 135 0.0 1.0 0.00 0.00 0.00 55
20260901013003 64 135 0.0 1.0 0.00 0.00 0.00 55
20260901012503 63 135 0.0 2.0 0.00 0.00 0.00 55
20260901012003 63 135 0.0 2.0 0.00 0.00 0.00 55
20260901011503 63 135 0.0 1.0 0.00 0.00 0.00 55
20260901011004 63 0 0.0 0.0 0.00 0.00 0.00 54
20260901010503 64 135 0.0 1.0 0.00 0.00 0.00 53
20260901010003 64 135 0.0 2.0 0.00 0.00 0.00 53
20260901005503 64 135 0.0 2.0 0.00 0.00 0.00 53
20260901005003 64 135 0.0 2.0 0.00 0.00 0.00 53
20260901004503 64 137 0.0 2.0 0.00 0.00 0.00 53
20260901004003 64 132 0.0 2.0 0.00 0.00 0.00 53
20260901003503 64 131 0.0 2.0 0.00 0.00 0.00 52
20260901003003 65 143 1.0 2.0 0.00 0.00 0.00 53
20260901002503 65 157 0.0 2.0 0.00 0.00 0.00 53
20260901002003 64 148 0.0 2.0 0.00 0.00 0.00 53
20260901001503 64 149 0.0 2.0 0.00 0.00 0.00 52
20260901001003 64 148 0.0 2.0 0.00 0.00 0.00 52
20260901000503 64 150 0.0 2.0 0.00 0.00 0.00 52
20260901000003 64 143 0.0 2.0 0.00 0.00 0.00 52
20260831235503 65 135 0.0 2.0 0.00 0.00 0.00 52
20260831235003 65 129 0.0 2.0 0.00 0.00 0.00 52
20260831234503 65 134 0.0 2.0 0.00 0.00 0.00 52
20260831234003 64 144 0.0 2.0 0.00 0.00 0.00 52
20260831233503 64 144 0.0 2.0 0.00 0.01 0.00 52
20260831233003 64 144 0.0 2.0 0.00 0.01 0.00 52
20260831232503 64 147 0.0 2.0 0.00 0.01 0.00 52
20260831232003 64 141 1.0 2.0 0.00 0.01 0.00 52
20260831231503 64 131 0.0 2.0 0.00 0.02 0.00 52
20260831231003 65 135 0.0 2.0 0.00 0.02 0.00 52
20260831230503 65 149 0.0 1.0 0.00 0.07 0.00 52
20260831230003 65 145 0.0 2.0 0.00 0.07 0.00 52
20260831225503 65 137 0.0 2.0 0.00 0.09 0.00 52
20260831225003 65 147 1.0 2.0 0.00 0.09 0.00 52
20260831224503 65 158 0.0 2.0 0.00 0.09 0.00 52
20260831224003 65 135 0.0 1.0 0.00 0.09 0.00 51
20260831223503 65 135 0.0 1.0 0.00 0.09 0.00 50
20260831223003 65 135 0.0 2.0 0.00 0.09 0.00 50
20260831222503 66 135 0.0 2.0 0.00 0.09 0.00 50
20260831222003 66 162 0.0 1.0 0.00 0.09 0.00 50
20260831221503 66 176 0.0 2.0 0.00 0.09 0.00 51
20260831221003 66 180 0.0 2.0 0.00 0.11 0.00 51
20260831220503 65 165 0.0 2.0 0.00 0.22 0.00 51
20260831220003 65 151 0.0 2.0 0.00 0.22 0.00 51
20260831215503 65 270 0.0 1.0 0.00 0.26 0.22 50
20260831215003 65 280 0.0 2.0 0.00 0.26 0.22 50
20260831214503 65 275 0.0 2.0 0.00 0.26 0.22 49
20260831214003 66 270 1.0 2.0 0.00 0.26 0.22 49
20260831213503 66 270 0.0 2.0 0.00 0.26 0.22 49
20260831213003 66 268 0.0 2.0 0.00 0.26 0.22 48
20260831212503 66 257 0.0 2.0 0.00 0.26 0.22 49
20260831212003 66 259 0.0 1.0 0.00 0.26 0.22 48
20260831211503 66 299 0.0 1.0 0.00 0.26 0.22 48
20260831211003 66 315 0.0 1.0 0.00 0.26 0.22 48
20260831210503 66 315 0.0 1.0 0.00 0.26 0.22 46
20260831210003 66 315 0.0 1.0 0.00 0.26 0.22 46
20260831205503 67 135 0.0 1.0 0.00 0.26 0.22 44
20260831205003 67 202 0.0 1.0 0.00 0.26 0.22 44
20260831204503 67 270 0.0 1.0 0.00 0.26 0.22 44